Dewpoint
68 67 68 67 67 67 67 68 67 67 68 68 68 67 67 69 69 69 67 67 66 67 67 66 65 64 63 64 64 65 66 65 65 64 64 64 64 64 65 64 64 64 65 65 65 66 66 66 66 66 67 66 65 64 65 64 63 63 63 62 62 62 63 62 62 63 63 61 62 61 61 61 62 62 62 62 63 64 64 64 64 64 64 64 65
68 68 68 67 67 67 67 66 67 68 67 67 68 68 68 69 69 68 68 67 66 65 67 64 63 63 62 64 64 65 65 64 64 63 63 63 62 62 62 62 61 61 61 62 63 63 63 63 64 65 65 66 64 62 62 62 61 61 60 60 60 60 60 60 60 61 61 60 59 59 59 58 58 59 60 61 61 63 64 64 64 63 63 64 64
68 67 67 67 67 66 65 66 67 67 67 67 68 68 68 67 67 66 66 66 65 65 65 64 63 60 60 60 60 60 63 64 63 62 61 60 60 60 59 60 59 58 58 58 59 59 60 60 62 62 63 64 63 61 60 59 59 58 58 58 58 57 57 58 58 57 58 59 57 57 57 57 57 57 57 58 59 62 63 63 63 63 63 63 63
67 67 67 67 66 65 66 66 66 67 67 67 68 68 68 68 68 67 66 66 66 66 66 63 58 56 55 56 58 58 60 63 63 62 60 60 59 59 58 56 57 56 55 55 54 54 55 55 57 59 61 61 62 61 59 58 58 58 57 57 57 57 56 56 57 56 56 57 57 56 56 56 56 56 56 56 56 59 61 60 60 60 60 62 62
67 67 68 67 67 66 66 66 66 66 67 67 67 68 67 67 66 65 66 64 64 64 62 59 57 57 56 55 54 55 57 60 62 61 60 58 57 57 57 57 55 55 56 54 53 53 52 51 52 54 56 57 58 58 59 57 57 57 57 56 56 56 57 56 56 56 56 56 56 56 55 55 56 56 55 55 55 56 59 57 57 58 58 60 61
67 68 67 67 67 67 67 67 66 67 67 67 67 67 66 67 66 65 65 65 65 63 61 58 57 55 55 55 55 54 53 55 56 58 59 59 58 56 55 55 54 54 54 54 54 53 52 52 52 52 53 54 55 57 57 57 57 56 56 56 55 55 56 56 55 56 55 55 56 55 54 54 55 55 55 55 55 55 57 55 55 55 56 57 58
68 67 67 67 66 65 66 66 66 67 66 66 66 66 65 64 65 65 64 66 64 62 57 57 55 54 53 53 53 53 53 50 50 52 51 51 51 52 53 54 52 52 54 54 57 53 52 52 53 53 53 53 54 56 56 56 56 55 54 55 56 55 54 55 55 55 55 55 55 54 54 54 54 54 54 53 53 53 55 55 54 54 55 56 56
68 67 67 67 66 66 66 66 66 66 66 65 66 65 64 64 64 64 62 63 62 59 57 56 54 54 54 53 52 52 51 51 49 48 49 48 47 48 48 49 50 53 54 52 53 55 54 53 53 54 54 53 53 52 53 53 52 51 50 50 52 52 52 52 53 53 53 53 54 54 54 54 54 54 53 53 53 53 53 54 54 54 53 54 55
68 68 67 67 66 67 67 66 66 66 66 65 65 65 64 65 64 63 61 61 62 60 57 55 54 53 52 51 52 52 50 50 50 49 49 45 44 44 47 48 53 54 46 48 52 53 53 53 54 54 53 53 51 51 49 49 51 50 48 47 49 50 50 50 51 52 52 53 53 53 53 52 52 53 53 53 53 52 52 52 52 53 53 53 53
67 67 67 67 67 67 67 68 67 67 65 66 64 64 63 63 62 62 61 61 61 58 56 55 55 53 52 51 51 50 51 49 51 54 47 45 44 44 45 46 45 45 44 44 46 52 54 54 53 53 53 52 50 50 50 49 49 51 49 47 46 47 47 47 49 50 51 52 53 54 53 52 52 52 53 53 53 53 52 52 52 52 51 52 52
67 67 67 67 67 67 67 66 67 67 64 62 63 64 64 63 62 61 63 61 59 60 56 55 54 54 52 51 50 50 51 54 50 46 47 50 52 50 45 42 44 45 44 44 44 45 47 48 46 49 51 51 50 50 50 49 50 50 50 47 46 46 47 47 47 49 51 52 53 53 52 52 52 52 53 53 53 53 52 52 52 52 51 51 51
66 66 67 66 66 66 66 66 64 62 62 62 61 62 61 60 60 60 61 60 58 56 55 54 54 53 54 53 53 53 52 51 48 48 48 47 46 46 47 46 42 44 46 45 43 43 41 43 50 45 46 49 50 50 49 48 47 48 50 49 47 46 47 47 47 48 50 51 52 51 51 51 51 52 53 53 53 53 52 52 52 53 51 51 50
67 66 65 67 64 65 64 63 63 62 62 61 60 59 61 61 61 61 59 59 58 56 55 54 53 52 52 51 50 53 54 50 48 47 44 44 44 43 47 44 45 44 42 46 45 43 42 42 43 43 45 43 45 50 50 47 46 45 46 48 48 47 47 47 48 48 49 51 51 51 50 50 50 51 51 51 51 51 52 51 51 52 51 51 50
66 66 65 65 64 64 61 61 63 63 63 62 62 63 61 60 60 58 60 60 58 57 57 55 53 51 50 50 50 49 52 47 47 46 46 46 48 46 47 44 44 44 47 39 42 41 41 42 44 44 45 46 45 44 45 48 49 45 44 45 47 47 47 47 48 48 49 50 51 49 49 50 50 50 50 50 49 50 51 50 50 51 51 51 50
66 66 65 63 62 61 61 61 61 62 60 61 60 59 58 60 60 57 55 56 59 60 59 58 54 53 52 49 46 46 48 45 46 45 43 45 46 45 47 41 37 39 45 44 40 40 42 43 43 44 43 45 46 45 46 48 49 44 42 42 44 47 47 47 47 47 48 49 49 49 49 49 49 49 49 48 48 49 50 50 51 51 50 50 50
63 63 63 63 63 62 62 61 62 61 59 58 60 59 58 58 61 59 56 52 55 55 58 56 57 54 50 51 49 48 45 44 43 43 44 44 45 45 46 45 43 44 47 35 40 43 43 44 46 44 44 44 47 46 46 45 47 45 42 42 43 45 47 47 47 46 47 47 47 48 47 47 47 47 48 48 48 48 49 49 49 50 50 50 51
62 61 61 60 60 60 60 59 58 59 60 59 58 58 59 59 59 56 54 54 54 54 50 55 54 57 55 53 51 50 49 46 42 40 42 40 42 45 47 47 43 46 40 36 39 41 41 42 44 48 46 46 46 43 44 44 42 50 48 47 45 45 46 48 48 46 46 47 47 47 46 46 46 47 47 47 47 48 48 49 49 49 50 50 50
62 61 61 60 58 58 60 58 58 59 61 57 58 57 57 56 56 58 54 54 50 48 48 53 53 53 54 53 53 51 42 41 44 38 45 46 45 43 40 43 46 44 44 38 39 40 48 41 42 45 48 45 45 44 43 43 48 46 46 44 47 46 48 48 47 45 45 46 46 46 46 46 46 46 46 47 48 47 47 47 48 48 49 49 50
60 59 60 60 59 58 59 58 59 57 59 58 57 54 54 55 56 54 55 55 50 48 48 48 47 48 51 49 55 55 47 41 43 40 36 40 42 38 39 42 43 43 44 37 43 44 44 46 43 41 42 45 45 44 43 42 50 49 44 49 49 48 49 51 48 46 46 46 46 46 46 45 45 45 46 47 46 47 47 46 46 46 47 48 48
59 57 58 58 57 58 58 57 55 56 58 55 55 55 54 55 56 55 53 54 51 46 47 49 43 43 52 49 52 51 49 49 45 39 40 38 37 41 43 40 40 42 47 41 43 46 45 45 43 40 40 41 39 40 42 42 42 43 46 49 51 49 49 51 49 48 48 47 47 46 46 45 45 45 46 46 46 46 46 46 46 46 46 47 46
59 57 57 58 59 56 56 56 55 55 55 53 52 52 53 53 52 52 50 51 53 51 50 48 48 48 50 48 47 47 46 45 46 47 46 41 39 39 37 42 43 45 42 44 43 41 44 46 43 44 45 46 43 41 41 40 41 41 45 48 50 51 52 50 48 47 47 49 48 48 47 46 46 46 47 46 46 46 46 46 47 47 46 46 46
56 56 56 55 54 55 51 51 53 53 53 51 51 51 52 52 52 51 51 49 50 49 48 48 47 46 47 46 45 45 44 43 43 44 45 45 41 38 40 37 38 41 45 42 42 41 42 43 45 43 40 39 38 40 39 38 40 44 44 50 50 49 49 50 48 46 47 49 49 49 48 47 48 48 47 46 46 46 46 46 46 46 45 47 46
57 56 56 56 55 53 50 51 53 55 53 51 51 50 51 50 51 51 50 49 49 49 49 48 47 46 44 44 44 44 43 43 42 44 42 41 41 41 41 41 41 42 42 42 44 40 39 40 41 41 40 38 38 39 37 38 50 48 51 50 48 52 50 49 47 46 47 51 51 51 50 50 50 48 47 46 45 44 45 45 46 46 46 45 46
57 56 55 54 54 54 54 50 49 48 48 48 49 49 50 51 51 52 51 50 50 49 47 46 45 45 45 45 45 45 45 44 44 43 43 42 41 40 38 37 39 42 44 41 41 43 42 40 39 41 40 37 37 36 41 43 42 48 46 46 48 48 50 50 47 46 46 46 47 48 50 51 50 50 47 44 44 44 45 45 45 45 45 46 46
55 55 55 53 53 53 51 50 49 51 50 49 49 50 49 49 49 49 49 48 48 47 47 47 46 45 44 44 43 43 44 45 44 42 43 41 39 37 38 40 38 39 41 41 39 42 41 39 38 38 35 33 39 37 42 42 39 45 48 44 47 49 50 52 51 47 46 45 46 48 50 50 50 48 46 44 44 45 46 46 46 47 47 47 47
55 54 55 54 54 53 51 49 49 49 48 47 47 48 48 48 49 49 49 49 48 47 46 46 46 45 44 44 44 43 43 44 43 42 41 39 38 39 38 40 40 42 37 39 39 32 27 28 30 32 35 36 35 37 38 37 39 44 47 45 45 48 48 48 49 48 48 47 47 48 49 49 49 49 48 47 47 47 48 48 49 49 48 48 48
55 55 56 53 52 50 49 49 49 48 48 48 49 48 48 49 49 49 48 47 46 46 45 45 45 44 44 44 44 43 44 44 43 43 43 41 40 40 38 37 37 40 38 39 31 25 26 29 28 29 32 36 33 34 37 39 42 46 47 42 40 46 46 46 47 48 47 47 46 46 46 47 48 50 50 49 48 49 49 45 44 45 45 46 46
56 55 56 53 50 50 49 48 48 47 48 48 47 46 46 46 46 46 46 49 46 45 44 43 43 43 42 42 42 42 43 44 43 43 44 42 41 41 39 38 37 35 38 38 38 37 33 32 30 32 33 33 35 36 42 41 37 45 46 41 39 39 43 45 46 46 46 46 46 45 44 44 45 46 46 47 48 45 44 44 44 44 45 45 44
56 55 53 51 50 49 47 47 47 48 47 47 46 46 47 47 47 46 46 46 46 44 45 45 45 45 44 43 42 41 42 43 42 43 43 44 42 41 38 37 39 36 35 34 37 36 36 34 31 32 34 34 36 38 37 36 40 43 40 40 38 38 42 45 43 43 44 45 44 42 43 44 45 46 47 47 45 44 44 45 45 44 44 44 44
55 55 52 51 51 51 48 48 48 46 46 46 46 47 47 46 45 45 46 47 46 46 46 44 43 44 44 42 43 44 45 41 41 42 42 41 42 40 40 39 38 36 36 34 34 38 37 36 35 35 35 36 37 38 38 38 43 41 40 38 36 36 43 42 41 42 42 42 41 40 42 43 44 46 46 47 44 45 46 46 44 43 43 43 43
54 53 50 50 49 48 48 48 46 47 47 46 47 47 45 44 45 45 45 43 42 42 42 43 43 43 42 42 42 41 42 43 43 41 41 41 40 41 41 42 40 38 36 36 32 36 38 35 37 37 37 37 36 37 38 35 38 41 38 36 33 40 42 38 42 41 40 40 41 42 44 43 42 44 46 46 45 44 45 45 43 42 43 43 43
53 51 51 49 48 48 47 47 46 46 46 47 46 45 44 45 45 44 43 44 44 43 43 43 45 45 42 42 43 43 44 43 42 42 42 43 43 41 41 42 42 41 40 37 33 33 37 36 38 38 37 37 36 36 32 33 37 43 36 33 31 39 32 33 40 39 40 40 41 41 42 42 42 44 46 47 46 45 44 44 42 42 43 42 42
52 51 50 49 48 48 47 47 45 45 46 46 45 45 45 45 44 43 43 43 42 42 44 43 42 41 42 42 42 43 42 40 41 41 41 41 42 40 42 40 39 40 37 34 34 36 37 39 39 39 38 37 33 32 31 32 31 34 35 29 29 29 32 33 30 37 38 40 41 41 42 41 42 45 47 46 46 44 44 42 42 42 42 42 41
51 50 50 49 48 47 46 45 45 46 46 45 45 45 45 44 43 45 43 42 41 42 42 41 43 43 40 40 41 40 42 40 40 40 41 40 42 39 39 40 39 40 40 37 35 36 34 36 36 35 34 34 32 31 32 31 32 34 27 27 29 30 31 29 28 31 39 41 41 41 42 41 41 43 44 43 43 42 42 41 41 41 41 41 39
51 51 50 49 48 47 46 45 45 45 45 45 46 45 43 43 44 43 43 41 42 42 41 41 40 41 41 43 42 43 45 43 42 41 40 40 42 41 40 40 39 39 39 38 36 34 34 34 35 32 32 33 32 31 29 31 35 29 27 27 29 33 31 29 30 32 37 40 40 41 41 41 41 42 43 43 42 42 41 41 41 41 40 40 40
51 51 49 48 48 47 46 44 44 44 44 45 46 43 43 43 44 43 43 43 42 41 41 40 41 43 43 41 41 43 43 40 40 39 39 40 41 41 40 38 37 37 38 37 36 34 34 33 32 31 33 31 32 29 30 33 29 29 28 29 31 29 28 31 30 32 36 40 41 40 40 41 41 42 43 42 42 42 42 41 41 41 40 39 40
51 50 49 48 47 46 45 44 44 44 44 45 44 43 44 44 44 43 42 41 42 41 40 41 47 41 43 42 43 44 43 39 38 37 37 38 40 41 38 36 36 37 36 36 36 36 33 31 32 32 31 30 32 30 31 30 29 28 30 31 29 28 29 30 34 35 39 40 39 40 40 40 41 41 42 42 42 42 42 41 41 40 40 40 39
50 49 48 47 46 45 44 44 44 43 44 44 43 43 43 44 43 42 43 44 43 41 41 43 42 44 42 43 43 42 42 39 37 36 37 37 38 38 36 35 35 35 34 34 36 34 33 32 31 30 30 30 29 31 30 31 30 30 30 30 30 30 30 31 32 34 35 34 34 35 39 39 40 40 41 42 41 41 41 41 41 40 40 40 39
49 48 48 47 47 45 44 44 44 43 44 44 43 43 44 43 43 43 44 43 41 41 41 42 43 43 42 41 41 39 38 37 35 35 35 35 38 37 38 35 36 34 34 34 34 33 32 31 30 31 30 31 31 30 31 32 31 31 30 30 30 31 32 31 32 33 32 33 36 38 38 39 41 40 40 41 41 41 41 41 41 40 40 40 39
49 48 47 46 46 44 44 44 44 44 43 43 42 43 43 43 44 44 43 41 40 41 42 41 43 43 42 39 37 36 35 36 34 35 35 34 37 35 35 35 36 34 34 35 34 33 32 32 31 30 30 31 31 32 33 32 31 31 33 32 31 32 32 32 31 31 32 33 32 33 37 38 37 39 41 41 41 42 42 41 41 41 41 40 39
49 47 47 46 45 44 44 44 44 44 44 44 45 45 46 46 46 44 43 41 41 42 41 42 42 42 38 36 34 35 42 40 40 41 45 44 38 34 35 35 37 34 34 35 35 34 34 33 32 32 31 31 32 32 32 32 31 31 32 33 33 33 33 33 31 30 32 31 32 33 33 34 35 36 38 38 38 40 40 41 40 40 40 40 40
48 47 47 46 44 44 43 44 44 46 46 46 48 47 47 45 45 44 43 42 42 42 41 41 41 40 35 35 41 39 36 37 41 40 38 40 44 41 37 36 35 35 34 34 34 35 35 34 33 32 32 31 32 32 33 33 33 34 33 34 33 34 34 32 31 29 32 32 31 31 32 34 35 35 37 37 38 39 38 38 37 39 40 39 40
47 47 46 45 44 44 44 45 46 46 46 46 44 42 42 44 44 43 43 42 43 42 41 40 41 41 36 36 37 39 41 43 42 40 38 38 38 38 39 41 43 38 35 35 34 34 35 35 34 33 32 32 32 33 33 33 34 34 34 35 35 35 33 31 29 30 31 31 31 31 30 31 32 33 35 37 37 37 38 37 39 40 40 39 40
47 47 45 45 46 46 46 46 46 46 46 45 40 40 40 41 44 44 44 43 43 42 42 40 42 41 35 35 37 41 40 40 40 40 41 41 39 38 37 37 37 38 40 36 34 33 33 32 33 32 32 32 32 33 33 33 33 34 34 35 35 34 33 31 30 29 30 32 31 30 29 28 31 34 35 35 36 37 38 39 40 39 39 40 40
47 46 47 47 46 46 46 46 47 47 45 40 39 39 39 41 42 44 43 43 43 41 43 41 41 41 36 36 37 41 41 45 46 41 39 41 43 41 41 41 41 39 37 36 37 37 34 33 32 31 31 32 32 33 34 34 35 34 34 34 34 34 33 32 31 30 31 32 30 28 26 27 31 33 33 34 35 37 38 39 39 39 39 40 40
46 47 47 46 46 46 46 46 46 45 43 40 38 39 39 39 40 42 43 42 44 42 43 42 41 41 39 36 39 41 42 44 40 36 36 35 35 35 36 37 38 41 42 40 38 37 39 36 33 31 32 34 34 34 35 35 34 34 34 34 34 34 34 32 33 33 31 32 29 28 27 27 30 33 32 32 35 37 38 38 38 39 39 39 39
46 46 46 46 45 46 46 45 44 45 44 39 38 38 38 38 39 41 43 44 43 43 42 43 43 42 42 41 41 40 41 39 36 35 34 33 33 35 36 37 39 41 40 40 40 38 38 37 35 34 34 34 35 35 34 34 34 35 35 35 35 35 35 35 31 30 29 30 29 29 27 28 30 32 32 31 35 37 37 37 37 38 39 39 39
46 46 45 45 45 45 46 46 45 46 45 38 37 37 37 37 39 43 42 42 42 42 42 43 42 43 42 42 42 41 38 35 41 38 38 37 34 34 36 38 39 39 40 47 42 41 41 38 37 37 37 36 36 36 36 36 36 36 37 37 36 34 31 30 28 29 29 29 30 29 29 28 31 31 29 32 36 37 36 34 36 38 39 39 38
45 44 44 44 44 45 46 45 45 46 43 38 37 37 37 37 39 41 41 41 42 42 42 42 42 42 43 42 40 39 34 32 36 34 36 37 34 35 37 36 37 37 40 40 38 36 36 36 36 36 36 36 36 36 37 37 38 37 35 34 31 31 30 29 29 28 28 29 29 30 32 29 27 27 30 34 37 37 35 32 34 37 38 38 38
45 44 44 44 44 45 45 44 45 45 43 40 37 37 37 37 40 40 41 40 41 42 42 42 41 41 44 48 44 39 35 33 36 34 35 39 34 35 35 35 35 36 37 37 36 36 36 36 36 35 35 36 36 37 38 38 37 38 33 32 32 32 31 31 29 29 29 29 29 30 28 26 27 28 32 36 37 34 32 32 34 36 37 37 37
44 44 44 44 43 44 44 44 49 46 43 40 37 36 36 37 40 40 40 39 41 41 41 40 40 40 42 47 46 41 35 36 34 35 35 39 35 35 34 34 34 34 35 35 34 33 33 34 33 34 34 36 39 39 39 37 37 40 36 34 34 33 31 31 31 30 28 28 28 30 27 27 27 29 34 33 31 32 33 33 35 35 35 35 36